LIMFLIMJ

Guest
Details From LIMF - Torino Caselle
To LIMJ - Genova Sestri
Flight Number -
Tags generated
Created
Modified
Stats Distance 70 nm / 129 km
Max Altitude 2,800 ft / 853 m
Waypoints 3
Social Downloads 0
Likes 0
Share VATSIM

Download

Looking for another format? Having issues loading an existing format? Contact us
Advertisement - Login to hide

Notes

Basic altitude profile: - Ascent Rate: 2100ft/min - Ascent Speed: 245kts - Cruise Altitude: 310ft - Cruise Speed: 320kts - Descent Rate: 1500ft/min - Descent Speed: 240kts Options: - Use NATs: yes - Use PACOTS: yes - Use low airways: yes - Use high airways: yes

Route

LIMF TESTO LIMJ

ID Type Via Altitude (ft/m) Position (lat/lon) Dist (leg/tot) Name
O LIMF APT - 0 / 0 45.20076 / 7.64963 - / 0 nm Torino Caselle
TESTO FIX - 2,800 / 853 44.59722 / 8.66556 56 / 56 nm
O LIMJ APT - 0 / 0 44.41196 / 8.84187 13 / 69 nm Genova Sestri

Altitude Profile

Advertisement - Login to hide

LIMF

Details ICAO LIMF (TRN)
Name Turin-Caselle
Region Italy
Timezone Europe/Rome (UTC+2.0)
Stats Elevation 988 ft / 301 m (AMSL)
Location 45.200800° 7.649650°
Runways 1
Magnetic Variation 2.289° E

METAR

LIMF 200350Z 33002KT 7000 BKN012 11/11 Q1004

Decode

TAF

TAF LIMF 192300Z 2000/2024 VRB05KT 9999 SCT025 BKN050 TEMPO 2000/2009 4000 RA

Decode

Departure Runways

ID Width Length Bearing (true/mag) Surface Threshold Overrun Markings Lighting
18 197 ft / 60 m 10,837 ft / 3,303 m 182.56° / 180.27° ASPHALT 2,372 ft / 723 m 1,647 ft / 502 m APP CENTERLINE EDGE THRESHOLD ALSF-II TDZ REIL-OMNI
36 197 ft / 60 m 10,837 ft / 3,303 m 2.56° / 0.27° ASPHALT 1,138 ft / 347 m 0 ft / 0 m PREC-APP CENTERLINE EDGE THRESHOLD ALSF-II REIL-OMNI

LIMJ

Details ICAO LIMJ (GOA)
Name Genoa Cristoforo Colombo
Region Italy
Timezone Unknown
Stats Elevation 13 ft / 4 m (AMSL)
Location 44.412000° 8.841870°
Runways 1
Magnetic Variation 2.550° E

METAR

LIMJ 200350Z 06003KT 9999 -RA FEW011 SCT019 BKN060 14/13 Q1005

Decode

TAF

TAF LIMJ 192300Z 2000/2024 03006KT 9999 BKN020 BKN050 TEMPO 2000/2014 RA PROB40 TEMPO 2000/2009 4000 TSRA BECMG 2009/2011 20012KT

Decode

Destination Runways

ID Width Length Bearing (true/mag) Surface Threshold Overrun Markings Lighting
10 148 ft / 45 m 9,576 ft / 2,919 m 105.34° / 102.79° ASPHALT 0 ft / 0 m 197 ft / 60 m PREC-APP CENTERLINE EDGE THRESHOLD REIL-OMNI
28 148 ft / 45 m 9,576 ft / 2,919 m 285.37° / 282.82° ASPHALT 535 ft / 163 m 0 ft / 0 m PREC-APP CENTERLINE EDGE THRESHOLD SALS REIL-OMNI

Approach Navaids

Runway Type Ident Frequency Range Bearing (true/mag) Slope Elevation
28 DME GSE 109.30 MHz 18 nm / 33 km - - 26 ft / 8 m (AMSL)
28 LOC-ILS GSE 109.30 MHz 18 nm / 33 km 285.40° / 282.85 ° - 9 ft / 3 m (AMSL)
28 GS GSE 109.30 MHz 10 nm / 19 km 285.40° / 282.85 ° 3.17° 26 ft / 8 m (AMSL)

Popular Alternatives